Regional Weather Roundup
Issued by NWS Binghamton, NY

Current Version | Previous Version | Text Only | Print | Product List | Glossary On
Versions: 1 2 3 4 5 6 7 8 9 10 11 12 13 14 15 16 17 18 19 20 21 22 23 24 25 26 27 28 29 30 31 32 33 34 35 36 37 38 39 40 41 42 43 44 45 46 47 48 49 50
000
ASUS41 KBGM 221210
RWRBGM

REGIONAL WEATHER ROUNDUP
NATIONAL WEATHER SERVICE BINGHAMTON NY
700 AM EST WED JAN 22 2020

Note: "fair" indicates few or no clouds below 12,000 feet with no
significant weather and/or obstructions to visibility.

* = Station(s) that does not report precipitation, such as rain,
snow, etc, also no thunder or fog.

NYZ009-015>018-022>025-036-037-044>046-055>057-062-221300
...Central New York...

CITY           SKY/WX    TMP DP  RH WIND       PRES   REMARKS
Binghamton     FAIR      14   9  80 SW8       30.34R WCI   3
Cortland       FAIR       3   3 100 CALM      30.38R
Dansville      FAIR      15  10  80 SE13      30.39S WCI   1
Elmira         FAIR       7   2  80 CALM      30.40R
Endicott       SUNNY      7   5  92 CALM      30.42R
Ithaca         FAIR       7   4  87 E6        30.38R WCI  -3
Hamilton       CLOUDY    12  10  92 CALM      30.39R
Monticello     FAIR       8   6  92 W6        30.37R WCI  -2
Norwich        CLEAR      3   0  85 CALM      30.41S
Oneonta        PTCLDY    12  10  92 CALM      30.33S
Penn Yan       FAIR      20  12  71 S8        30.37R WCI  10
Rome           CLOUDY    23  18  81 CALM      30.41R
Seneca Falls   SUNNY     16  10  79 S7        30.42R WCI   6
Sidney         CLEAR      3   1  92 CALM      30.42R
Skaneateles    FAIR       9   7  92 CALM      30.38R
Syracuse       CLOUDY    24  15  68 S8        30.41R WCI  15
$$

PAZ038>040-043-044-047-048-072-221300
...Northeast Pennsylvania...

CITY           SKY/WX    TMP DP  RH WIND       PRES   REMARKS
Hazleton       FAIR      18  10  73 CALM      30.39R
Scranton       FAIR      11   6  81 CALM      30.41R
Towanda        SUNNY     10   9  92 CALM      30.45R
$$
&&
KEY
WCI = Wind Chill Index
VSB = Visibility
HX  = Heat Index
$$



USA.gov is the U.S. government's official web portal to all federal, state and local government web resources and services.